Location: College Rock
(37.2713°N, 119.1740°W)
Time: 04:27:12
(UTC+00:00)

Meteor 1-31 Rocket - Pass Details

Date: 29 October 2020
Orbit: 521 x 546 km, 97.6° (Epoch: 23 November)

Event Time Altitude Azimuth Distance (km) Brightness Sun altitude
Rises 13:41:17 0° 353° (N) 2,720 6.2 -8.1°
Reaches altitude 10° 13:43:56 10° 334° (NNW) 1,821 5.1 -7.6°
Maximum altitude 13:46:36 18° 292° (WNW) 1,387 4.2 -7.0°
Drops below altitude 10° 13:49:15 10° 249° (WSW) 1,807 5.0 -6.5°
Sets 13:51:53 0° 230° (SW) 2,691 6.0 -6.0°
